Regional Weather Roundup
Issued by NWS

Home | Current Version | Previous Version | Graphics & Text | Print | Product List | Glossary On
Versions: 1 2 3 4 5 6 7 8 9 10 11 12 13 14 15 16 17 18 19 20 21 22 23 24 25 26 27 28 29 30 31 32 33 34 35 36 37 38 39 40 41 42 43 44 45 46 47 48 49 50
000
ASUS43 KMPX 221610
RWRMN
WEATHER ROUNDUP FOR MINNESOTA
NATIONAL WEATHER SERVICE TWIN CITIES/CHANHASSEN MN
1100 AM CDT THU JUN 22 2017


NOTE: "FAIR" INDICATES FEW OR NO CLOUDS BELOW 12,000 FEET WITH NO
SIGNIFICANT WEATHER AND/OR OBSTRUCTIONS TO VISIBILITY. N/A MEANS
CURRENT SKY AND/OR WEATHER CONDITIONS ARE NOT AVAILABLE.

MNZ060>063-068>070-221700-
   Twin Cities Metro

CITY           SKY/WX    TMP DP  RH WIND       PRES   REMARKS
TWIN CITIES    LGT RAIN  70  64  81 W8        29.77R
ST PAUL        LGT RAIN  68  67  96 VRB3      29.74R
CRYSTAL        LGT RAIN  67  63  87 SW5       29.75R FOG
BLAINE         CLOUDY    70  66  88 CALM      29.72R
LAKEVILLE      CLOUDY    68  68 100 CALM      29.75R FOG
EDEN PRAIRIE   TSTM      68  65  90 W5        29.77R VSB 3/4
SOUTH ST PAUL  CLOUDY    69  67  92 SW3       29.73R
LAKE ELMO      LGT RAIN  68  66  94 CALM      29.74R
$$
MNZ001>005-007-008-013>017-022>024-027-028-221700-
   Northwest Minnesota

CITY           SKY/WX    TMP DP  RH WIND       PRES   REMARKS
BEMIDJI        MOSUNNY   69  46  42 W10G16    29.71R
HALLOCK        PTSUNNY   66  52  59 W9        29.67S
ROSEAU         CLOUDY    63  52  67 SW8       29.68S
WARROAD        CLOUDY    61  52  72 SW7       29.68F
THIEF RVR FALL CLOUDY    65  50  58 W14       29.71F
CROOKSTON      CLOUDY    68  54  60 W14       29.70F
FOSSTON        CLOUDY    63  48  59 W7        29.72F
DETROIT LAKES  CLOUDY    70  46  43 NW10      29.74S
MOORHEAD       CLOUDY    73  46  38 NW16      29.72F
PARK RAPIDS    CLOUDY    70  45  40 NW10      29.71F
MAHNOMEN       FAIR      67  50  53 NW10      29.72F
$$
MNZ006-009>011-018-025>026-221700-
   North Central Minnesota

CITY           SKY/WX    TMP DP  RH WIND       PRES   REMARKS
BAUDETTE       CLOUDY    61  49  64 W9        29.67F
FLAG ISLAND    CLOUDY    64  46  52 SW9       29.63S
INTL FALLS     CLOUDY    68  50  52 W9        29.64F
WASKISH        CLOUDY    64  52  63 W10       29.69R
BIG FORK       MOSUNNY   70  50  49 CALM      29.67F
LONGVILLE      CLOUDY    68  52  56 CALM      29.70F
GRAND RAPIDS   CLOUDY    67  51  56 NW7       29.72S
CRANE LAKE     CLOUDY    70  46  43 NW6       29.65F
ORR            CLOUDY    70  48  46 NW8       29.64F
COOK           CLOUDY    70  52  52 W7        29.67S
WALKER         FAIR      67  51  57 NW6       29.70F
$$
MNZ012-019>021-037-221700-
   Northeast Minnesota

CITY           SKY/WX    TMP DP  RH WIND       PRES   REMARKS
DULUTH         MOSUNNY   69  50  50 W7        29.70R
ELY            CLOUDY    68  50  52 W6        29.65F
HIBBING        CLOUDY    68  47  46 VRB7      29.69R
EVELETH        CLOUDY    70  47  44 W6        29.70R
DULUTH HARBOR  CLOUDY    72  55  56 SW3       29.69R
TWO HARBORS    CLOUDY    72  63  73 SW7       29.67R
SILVER BAY     CLOUDY    70  61  73 S7        29.66R
GRAND MARAIS     N/A     50  46  86 W7        29.63F
G MARAIS ARPRT CLOUDY    66  46  48 NW6       29.65F
$$
MNZ029>031-032-039>041-046>048-054>057-064-221700-
   West Central Minnesota

CITY           SKY/WX    TMP DP  RH WIND       PRES   REMARKS
FERGUS FALLS   CLOUDY    66  55  68 NW9       29.72R
WHEATON        CLOUDY    64  55  72 NW5       29.76R
MORRIS         CLOUDY    64  63  94 SE3       29.74R
ALEXANDRIA     CLOUDY    65  56  72 CALM      29.75R
ELBOW LAKE       N/A     66  59  78 CALM      29.74S
WADENA         CLOUDY    64  57  77 CALM      29.73R
GLENWOOD       LGT RAIN  61  57  88 SE7       29.75F
APPLETON       LGT RAIN  61  57  88 SE6       29.75R
BENSON         LGT RAIN  61  57  88 SW6       29.76F
ORTONVILLE     CLOUDY    61  57  88 SW6       29.79R
MADISON        RAIN      63  63 100 SW3       29.81R
WILLMAR        FAIR      61  61 100 E8        29.76R
$$
MNZ033>034-036-042>043-049>051-058-059-221700-
   Central Minnesota

CITY           SKY/WX    TMP DP  RH WIND       PRES   REMARKS
ST CLOUD       RAIN      59  59 100 S3        29.76R FOG
SAUK CENTRE    LGT RAIN  61  58  90 SE7       29.75S
PAYNESVILLE    RAIN      58  58 100 CALM      29.79R
AITKIN         CLOUDY    66  55  68 CALM      29.71R
PINE RIVER     CLOUDY    66  55  68 CALM      29.74F
BRAINERD       CLOUDY    68  51  54 CALM      29.73R
STAPLES        CLOUDY    64  54  68 CALM      29.74R
LONG PRAIRIE   LGT RAIN  63  57  82 CALM      29.76R
LITTLE FALLS   CLOUDY    64  55  72 CALM      29.76R
LITCHFIELD     RAIN      63  61  94 SE3       29.76F
BUFFALO        LGT RAIN  64  60  86 W3        29.79R
MAPLE LAKE     RAIN      63  61  93 CALM      29.78R
HUTCHINSON     PTSUNNY   66  64  93 SE6       29.75F
$$
MNZ037-044-045-052-053-221700-
   East Central Minnesota

CITY           SKY/WX    TMP DP  RH WIND       PRES   REMARKS
PRINCETON      LGT RAIN  63  59  88 CALM      29.78R
MORA           CLOUDY    64  61  88 S5        29.74R
CAMBRIDGE      RAIN      64  55  72 CALM      29.71S
RUSH CITY      DRIZZLE   64  61  88 S3        29.73R
MOOSE LAKE     CLOUDY    70  52  52 CALM      29.69R
HINCKLEY       FAIR      68  63  83 CALM      29.73R
CLOQUET        CLOUDY    70  48  46 CALM      29.70R HAZE
MCGREGOR       CLOUDY    68  55  64 SW3       29.72R
$$
MNZ071>073-080-081-089-090-097-098-221700-
   Southwest Minnesota

CITY           SKY/WX    TMP DP  RH WIND       PRES   REMARKS
MONTEVIDEO     CLOUDY    63  61  94 E6        29.71F
GRANITE FALLS  CLOUDY    65  62  87 NE8       29.71F
CANBY          RAIN      61  59  93 CALM      29.75R
MARSHALL       CLOUDY    66  62  87 E7        29.73F
REDWOOD FALLS  LGT RAIN  67  65  93 E10       29.68F FOG
OLIVIA         TSTM      63  59  88 E6        29.72F
PIPESTONE      CLOUDY    70  64  83 E10G16    29.72S
WINDOM         PTSUNNY   70  66  88 NE12      29.72F
WORTHINGTON    CLOUDY    70  65  84 E20       29.72F
JACKSON        PTSUNNY   70  66  88 NE5G16    29.73F
TRACY          TSTM      69  68  97 E10       29.71F
SLAYTON        PTSUNNY   70  62  75 E16       29.73F
$$
MNZ065>067-074>077-082>085-091>093-221700-
   South Central Minnesota

CITY           SKY/WX    TMP DP  RH WIND       PRES   REMARKS
MANKATO        CLOUDY    70  67  90 NE6       29.74R
NEW ULM        CLOUDY    66  64  94 N5        29.75S
ST JAMES       CLOUDY    70  68  94 N7        29.74F
FAIRMONT       CLOUDY    71  68  90 N10       29.74R
GLENCOE        RAIN      67  67 100 CALM      29.77R
FARIBAULT      LGT RAIN  70  66  88 CALM      29.76R
OWATONNA       RAIN      70  68  94 N14       29.73F
WASECA         LGT RAIN  70  68  94 NW5       29.79R
ALBERT LEA     LGT RAIN  66  66 100 CALM      29.72F
$$
MNZ078>079-086>088-094>096-221700-
   Southeast Minnesota

CITY           SKY/WX    TMP DP  RH WIND       PRES   REMARKS
ROCHESTER      TSTM      66  66 100 SW9       29.80R FOG
RED WING       RAIN      70  68  94 NW3G9     29.73R
STANTON        LGT RAIN  70  67  90 CALM      29.73R
DODGE CENTER   CLOUDY    66  64  94 E10G17    29.66F
WINONA         CLOUDY    73  64  73 CALM      29.71R
AUSTIN         RAIN      66  63  88 SE20G25   29.64F
PRESTON        TSTM      67  64  89 W13       29.82R
$$
ABBREVIATIONS USED IN REMARKS
   TC - TEMPERATURES IN CELSIUS
  WCI - WIND CHILL INDEX
   HX - HEAT INDEX
  VSB - VISIBILITY
$$



USA.gov is the U.S. government's official web portal to all federal, state and local government web resources and services.